1577487640,2019-12-28 00:00,77.49,1006.00,1024.07,150,0.67,-2.81,-85,1
1577487700,2019-12-28 00:01,76.87,1006.05,1024.12,150,0.68,-2.91,-85,1
1577487760,2019-12-28 00:02,77.07,1006.09,1024.16,150,0.67,-2.89,-83,1
1577487820,2019-12-28 00:03,76.71,1006.15,1024.22,150,0.68,-2.94,-83,1
1577487943,2019-12-28 00:05,76.42,1006.09,1024.16,150,0.68,-2.99,-86,1
1577488004,2019-12-28 00:06,77.06,1006.14,1024.21,150,0.68,-2.88,-84,1
1577488064,2019-12-28 00:07,76.70,1006.14,1024.22,150,0.68,-2.94,-85,1
1577488190,2019-12-28 00:09,77.01,1006.13,1024.20,150,0.68,-2.89,-85,1
1577488252,2019-12-28 00:10,76.74,1006.11,1024.19,150,0.67,-2.94,-87,1
1577488312,2019-12-28 00:11,76.65,1006.16,1024.23,150,0.66,-2.97,-83,1
1577488373,2019-12-28 00:12,76.12,1006.21,1024.28,150,0.63,-3.09,-83,1
1577488433,2019-12-28 00:13,76.26,1006.19,1024.27,150,0.66,-3.04,-84,1
1577488493,2019-12-28 00:14,76.36,1006.19,1024.26,150,0.67,-3.01,-85,1
1577488553,2019-12-28 00:15,76.52,1006.23,1024.30,150,0.67,-2.98,-84,1
1577488613,2019-12-28 00:16,76.47,1006.26,1024.33,150,0.66,-3.00,-85,1
1577488736,2019-12-28 00:18,76.44,1006.15,1024.22,150,0.65,-3.02,-84,1
1577488796,2019-12-28 00:19,76.36,1006.30,1024.38,150,0.64,-3.04,-87,1
1577488856,2019-12-28 00:20,76.55,1006.27,1024.34,150,0.67,-2.98,-87,1
1577488916,2019-12-28 00:21,76.48,1006.23,1024.31,150,0.64,-3.02,-85,1
1577488976,2019-12-28 00:22,75.56,1006.35,1024.42,150,0.63,-3.19,-85,1
1577489036,2019-12-28 00:23,76.07,1006.26,1024.34,150,0.64,-3.09,-84,1
1577489096,2019-12-28 00:24,76.44,1006.20,1024.28,150,0.65,-3.02,-84,1
1577489156,2019-12-28 00:25,76.13,1006.22,1024.30,150,0.65,-3.07,-84,1
1577489216,2019-12-28 00:26,76.28,1006.27,1024.34,150,0.65,-3.05,-84,1
1577489276,2019-12-28 00:27,75.59,1006.32,1024.39,150,0.64,-3.18,-87,1
1577489336,2019-12-28 00:28,75.78,1006.29,1024.36,150,0.65,-3.13,-87,1
1577489396,2019-12-28 00:29,76.01,1006.30,1024.37,150,0.64,-3.10,-84,1
1577489456,2019-12-28 00:30,76.18,1006.33,1024.41,150,0.64,-3.07,-83,1
1577489516,2019-12-28 00:31,76.88,1006.31,1024.39,150,0.64,-2.95,-86,1
1577489576,2019-12-28 00:32,76.55,1006.28,1024.36,150,0.66,-2.99,-85,1
1577489636,2019-12-28 00:33,75.70,1006.38,1024.45,150,0.64,-3.16,-85,1
1577489696,2019-12-28 00:34,75.91,1006.32,1024.40,150,0.65,-3.11,-84,1
1577489757,2019-12-28 00:35,76.09,1006.30,1024.37,150,0.67,-3.06,-86,1
1577489880,2019-12-28 00:38,76.09,1006.34,1024.41,150,0.67,-3.06,-86,1
1577489940,2019-12-28 00:39,76.07,1006.36,1024.43,150,0.66,-3.07,-86,1
1577490000,2019-12-28 00:40,75.86,1006.35,1024.42,150,0.65,-3.12,-86,1
1577490060,2019-12-28 00:41,76.27,1006.24,1024.31,150,0.65,-3.05,-87,1
1577490120,2019-12-28 00:42,75.56,1006.45,1024.52,150,0.65,-3.17,-85,1
1577490243,2019-12-28 00:44,76.26,1006.38,1024.45,150,0.67,-3.03,-85,1
1577490303,2019-12-28 00:45,76.16,1006.43,1024.50,150,0.66,-3.06,-85,1
1577490363,2019-12-28 00:46,76.53,1006.44,1024.52,150,0.70,-2.95,-87,1
1577490423,2019-12-28 00:47,76.13,1006.47,1024.54,150,0.67,-3.05,-84,1
1577490483,2019-12-28 00:48,76.69,1006.46,1024.53,150,0.68,-2.94,-84,1
1577490543,2019-12-28 00:49,76.56,1006.46,1024.53,150,0.69,-2.96,-84,1
1577490603,2019-12-28 00:50,76.75,1006.49,1024.56,150,0.68,-2.93,-86,1
1577490663,2019-12-28 00:51,76.63,1006.52,1024.59,150,0.66,-2.97,-86,1
1577490723,2019-12-28 00:52,76.65,1006.60,1024.67,150,0.70,-2.93,-85,1
1577490783,2019-12-28 00:53,76.52,1006.55,1024.62,150,0.68,-2.97,-85,1
1577490843,2019-12-28 00:54,76.58,1006.52,1024.59,150,0.66,-2.98,-84,1
1577490904,2019-12-28 00:55,77.19,1006.55,1024.62,150,0.69,-2.85,-84,1
1577490964,2019-12-28 00:56,76.94,1006.60,1024.67,150,0.70,-2.88,-85,1
1577491024,2019-12-28 00:57,76.38,1006.53,1024.61,150,0.70,-2.98,-83,1
1577491084,2019-12-28 00:58,76.42,1006.58,1024.65,150,0.70,-2.97,-84,1
1577491144,2019-12-28 00:59,76.77,1006.56,1024.63,150,0.70,-2.91,-86,1
1577491204,2019-12-28 01:00,76.73,1006.60,1024.68,150,0.71,-2.91,-85,1
1577491264,2019-12-28 01:01,76.47,1006.56,1024.64,150,0.71,-2.95,-86,1
1577491324,2019-12-28 01:02,76.60,1006.64,1024.71,150,0.70,-2.94,-85,1
1577491384,2019-12-28 01:03,76.68,1006.64,1024.71,150,0.71,-2.92,-85,1
1577491444,2019-12-28 01:04,76.50,1006.61,1024.68,150,0.73,-2.93,-85,1
1577491504,2019-12-28 01:05,76.58,1006.62,1024.69,150,0.71,-2.93,-85,1
1577491564,2019-12-28 01:06,75.93,1006.60,1024.67,150,0.72,-3.04,-85,1
1577491624,2019-12-28 01:07,76.23,1006.50,1024.57,150,0.72,-2.99,-83,1
1577491684,2019-12-28 01:08,76.42,1006.59,1024.66,150,0.74,-2.93,-86,1
1577491744,2019-12-28 01:09,75.83,1006.61,1024.68,150,0.72,-3.06,-85,1
1577491804,2019-12-28 01:10,75.45,1006.69,1024.76,150,0.70,-3.14,-87,1
1577491864,2019-12-28 01:11,75.90,1006.61,1024.68,150,0.71,-3.05,-87,1
1577491924,2019-12-28 01:12,75.95,1006.63,1024.70,150,0.75,-3.01,-87,1
1577491984,2019-12-28 01:13,76.09,1006.58,1024.65,150,0.75,-2.98,-85,1
1577492044,2019-12-28 01:14,76.33,1006.69,1024.76,150,0.74,-2.95,-85,1
1577492104,2019-12-28 01:15,75.73,1006.70,1024.78,150,0.74,-3.05,-86,1
1577492165,2019-12-28 01:16,76.33,1006.69,1024.76,150,0.74,-2.95,-86,1
1577492227,2019-12-28 01:17,76.35,1006.70,1024.77,150,0.72,-2.97,-88,1
1577492287,2019-12-28 01:18,76.25,1006.69,1024.76,150,0.73,-2.97,-85,1
1577492347,2019-12-28 01:19,76.61,1006.69,1024.76,150,0.73,-2.91,-85,1
1577492408,2019-12-28 01:20,76.66,1006.70,1024.77,150,0.74,-2.89,-84,1
1577492468,2019-12-28 01:21,76.34,1006.68,1024.75,150,0.73,-2.96,-84,1
1577492528,2019-12-28 01:22,76.26,1006.72,1024.79,150,0.75,-2.95,-84,1
1577492591,2019-12-28 01:23,75.83,1006.76,1024.83,150,0.74,-3.04,-86,1
1577492651,2019-12-28 01:24,76.20,1006.76,1024.83,150,0.76,-2.95,-84,1
1577492711,2019-12-28 01:25,76.19,1006.77,1024.84,150,0.76,-2.95,-85,1
1577492771,2019-12-28 01:26,76.73,1006.77,1024.85,150,0.76,-2.86,-83,1
1577492831,2019-12-28 01:27,76.48,1006.78,1024.86,150,0.77,-2.89,-83,1
1577492891,2019-12-28 01:28,76.29,1006.84,1024.91,150,0.76,-2.94,-85,1
1577492951,2019-12-28 01:29,75.92,1006.81,1024.88,150,0.75,-3.01,-85,1
1577493011,2019-12-28 01:30,76.51,1006.84,1024.91,150,0.76,-2.90,-87,1
1577493071,2019-12-28 01:31,76.00,1006.91,1024.98,150,0.75,-3.00,-86,1
1577493131,2019-12-28 01:32,76.59,1006.89,1024.96,150,0.76,-2.88,-83,1
1577493191,2019-12-28 01:33,76.37,1006.85,1024.92,150,0.75,-2.93,-84,1
1577493251,2019-12-28 01:34,76.75,1006.93,1025.00,150,0.75,-2.86,-86,1
1577493311,2019-12-28 01:35,76.52,1006.91,1024.99,150,0.75,-2.91,-84,1
1577493371,2019-12-28 01:36,76.43,1006.90,1024.97,150,0.78,-2.89,-84,1
1577493431,2019-12-28 01:37,76.38,1006.88,1024.96,150,0.78,-2.90,-86,1
1577493491,2019-12-28 01:38,76.91,1006.92,1024.99,150,0.76,-2.83,-87,1
1577493551,2019-12-28 01:39,76.82,1006.96,1025.03,150,0.77,-2.83,-83,1
1577493611,2019-12-28 01:40,76.33,1006.99,1025.06,150,0.77,-2.92,-81,1
1577493671,2019-12-28 01:41,76.63,1007.01,1025.09,150,0.77,-2.87,-80,1
1577493731,2019-12-28 01:42,76.54,1006.97,1025.04,150,0.76,-2.89,-87,1
1577493792,2019-12-28 01:43,76.25,1006.98,1025.06,150,0.76,-2.94,-85,1
1577493852,2019-12-28 01:44,76.71,1007.01,1025.08,150,0.77,-2.85,-86,1
1577493912,2019-12-28 01:45,76.89,1006.96,1025.04,150,0.78,-2.81,-84,1
1577493972,2019-12-28 01:46,76.78,1007.07,1025.15,150,0.76,-2.85,-88,1
1577494032,2019-12-28 01:47,76.92,1007.06,1025.13,150,0.78,-2.81,-87,1
1577494092,2019-12-28 01:48,77.03,1007.01,1025.08,150,0.78,-2.79,-84,1
1577494152,2019-12-28 01:49,77.30,1007.02,1025.09,150,0.77,-2.75,-85,1
1577494212,2019-12-28 01:50,77.14,1007.05,1025.13,150,0.76,-2.79,-85,1
1577494272,2019-12-28 01:51,76.85,1007.09,1025.16,150,0.77,-2.83,-85,1
1577494332,2019-12-28 01:52,77.01,1007.04,1025.12,150,0.77,-2.80,-87,1
1577494392,2019-12-28 01:53,76.84,1007.09,1025.17,150,0.77,-2.83,-85,1
1577494452,2019-12-28 01:54,77.01,1007.08,1025.15,150,0.76,-2.81,-86,1
1577494512,2019-12-28 01:55,76.93,1007.09,1025.16,150,0.77,-2.81,-86,1
1577494572,2019-12-28 01:56,76.61,1007.08,1025.15,150,0.77,-2.87,-86,1
1577494632,2019-12-28 01:57,77.22,1007.10,1025.17,150,0.79,-2.74,-84,1
1577494692,2019-12-28 01:58,77.26,1007.14,1025.22,150,0.78,-2.75,-85,1
1577494752,2019-12-28 01:59,76.81,1007.11,1025.19,150,0.78,-2.83,-87,1
1577494812,2019-12-28 02:00,77.22,1007.13,1025.21,150,0.77,-2.76,-86,1
1577494872,2019-12-28 02:01,77.34,1007.10,1025.18,150,0.77,-2.74,-87,1
1577494932,2019-12-28 02:02,77.01,1007.13,1025.21,150,0.77,-2.80,-84,1
1577494992,2019-12-28 02:03,77.63,1007.13,1025.20,150,0.76,-2.70,-85,1
1577495052,2019-12-28 02:04,77.28,1007.11,1025.18,150,0.76,-2.76,-86,1
1577495115,2019-12-28 02:05,77.28,1007.14,1025.21,150,0.78,-2.74,-88,1
1577495175,2019-12-28 02:06,77.19,1007.15,1025.23,150,0.78,-2.76,-86,1
1577495236,2019-12-28 02:07,77.55,1007.17,1025.24,150,0.75,-2.73,-84,1
1577495296,2019-12-28 02:08,77.50,1007.20,1025.27,150,0.77,-2.71,-87,1
1577495356,2019-12-28 02:09,77.71,1007.24,1025.32,150,0.76,-2.69,-87,1
1577495416,2019-12-28 02:10,77.51,1007.31,1025.39,150,0.74,-2.74,-86,1
1577495476,2019-12-28 02:11,77.27,1007.23,1025.30,150,0.76,-2.76,-84,1
1577495536,2019-12-28 02:12,77.78,1007.22,1025.29,150,0.77,-2.67,-85,1
1577495596,2019-12-28 02:13,77.32,1007.45,1025.52,150,0.74,-2.78,-86,1
1577495656,2019-12-28 02:14,77.44,1007.20,1025.28,150,0.77,-2.73,-84,1
1577495716,2019-12-28 02:15,77.44,1007.26,1025.34,150,0.76,-2.74,-85,1
1577495776,2019-12-28 02:16,77.26,1007.31,1025.38,150,0.76,-2.77,-86,1
1577495836,2019-12-28 02:17,77.35,1007.28,1025.35,150,0.79,-2.72,-82,1
1577495896,2019-12-28 02:18,77.70,1007.28,1025.35,150,0.75,-2.70,-86,1
1577495956,2019-12-28 02:19,77.67,1007.32,1025.39,150,0.78,-2.68,-84,1
1577496016,2019-12-28 02:20,77.89,1007.38,1025.45,150,0.74,-2.68,-85,1
1577496076,2019-12-28 02:21,77.42,1007.24,1025.31,150,0.75,-2.75,-87,1
1577496136,2019-12-28 02:22,77.62,1007.29,1025.37,150,0.76,-2.70,-85,1
1577496260,2019-12-28 02:24,78.02,1007.32,1025.39,150,0.74,-2.65,-85,1
1577496320,2019-12-28 02:25,78.25,1007.39,1025.46,150,0.70,-2.65,-85,1
1577496380,2019-12-28 02:26,78.15,1007.34,1025.41,150,0.71,-2.66,-85,1
1577496440,2019-12-28 02:27,78.27,1007.38,1025.45,150,0.72,-2.63,-89,1
1577496500,2019-12-28 02:28,78.53,1007.28,1025.35,150,0.71,-2.59,-84,1
1577496560,2019-12-28 02:29,78.67,1007.45,1025.52,150,0.69,-2.59,-87,1
1577496620,2019-12-28 02:30,78.81,1007.43,1025.50,150,0.70,-2.56,-87,1
1577496680,2019-12-28 02:31,79.19,1007.49,1025.56,150,0.67,-2.52,-87,1
1577496740,2019-12-28 02:32,79.03,1007.48,1025.55,150,0.70,-2.52,-86,1
1577496800,2019-12-28 02:33,78.80,1007.45,1025.52,150,0.67,-2.59,-85,1
1577496860,2019-12-28 02:34,79.22,1007.52,1025.59,150,0.68,-2.51,-89,1
1577496920,2019-12-28 02:35,79.01,1007.47,1025.55,150,0.68,-2.54,-83,1
1577496980,2019-12-28 02:36,78.79,1007.51,1025.58,150,0.68,-2.58,-85,1
1577497040,2019-12-28 02:37,79.03,1007.50,1025.57,150,0.66,-2.56,-85,1
1577497100,2019-12-28 02:38,78.51,1007.44,1025.52,150,0.67,-2.64,-85,1
1577497160,2019-12-28 02:39,79.05,1007.59,1025.66,150,0.66,-2.55,-84,1
1577497283,2019-12-28 02:41,79.27,1007.57,1025.64,150,0.66,-2.52,-86,1
1577497343,2019-12-28 02:42,79.27,1007.56,1025.63,150,0.64,-2.54,-85,1
1577497403,2019-12-28 02:43,79.12,1007.55,1025.62,150,0.67,-2.53,-84,1
1577497463,2019-12-28 02:44,78.93,1007.61,1025.68,150,0.66,-2.58,-87,1
1577497523,2019-12-28 02:45,78.83,1007.57,1025.65,150,0.65,-2.60,-89,1
1577497583,2019-12-28 02:46,78.91,1007.57,1025.64,150,0.65,-2.59,-83,1
1577497643,2019-12-28 02:47,78.87,1007.61,1025.68,150,0.64,-2.61,-84,1
1577497704,2019-12-28 02:48,79.09,1007.65,1025.72,150,0.64,-2.57,-86,1
1577497764,2019-12-28 02:49,79.03,1007.68,1025.75,150,0.63,-2.59,-85,1
1577497824,2019-12-28 02:50,79.07,1007.64,1025.72,150,0.64,-2.57,-87,1
1577497884,2019-12-28 02:51,79.12,1007.68,1025.76,150,0.63,-2.57,-86,1
1577497944,2019-12-28 02:52,79.04,1007.62,1025.69,150,0.66,-2.56,-86,1
1577498004,2019-12-28 02:53,79.21,1007.67,1025.74,150,0.64,-2.55,-84,1
1577498064,2019-12-28 02:54,78.68,1007.64,1025.71,150,0.64,-2.64,-87,1
1577498124,2019-12-28 02:55,79.55,1007.67,1025.74,150,0.62,-2.51,-85,1
1577498184,2019-12-28 02:56,79.22,1007.68,1025.75,150,0.63,-2.56,-86,1
1577498244,2019-12-28 02:57,79.12,1007.65,1025.72,150,0.64,-2.56,-87,1
1577498304,2019-12-28 02:58,79.44,1007.65,1025.72,150,0.64,-2.51,-84,1
1577498364,2019-12-28 02:59,79.35,1007.73,1025.80,150,0.66,-2.50,-84,1
1577498424,2019-12-28 03:00,79.45,1007.72,1025.79,150,0.66,-2.49,-83,1
1577498484,2019-12-28 03:01,79.04,1007.65,1025.72,150,0.66,-2.56,-85,1
1577498544,2019-12-28 03:02,78.79,1007.70,1025.77,150,0.64,-2.62,-83,1
1577498604,2019-12-28 03:03,79.25,1007.76,1025.83,150,0.65,-2.53,-85,1
1577498664,2019-12-28 03:04,79.25,1007.73,1025.80,150,0.63,-2.55,-87,1
1577498724,2019-12-28 03:05,79.04,1007.72,1025.80,150,0.66,-2.56,-89,1
1577498784,2019-12-28 03:06,79.52,1007.76,1025.83,150,0.65,-2.49,-84,1
1577498844,2019-12-28 03:07,79.22,1007.77,1025.84,150,0.65,-2.54,-84,1
1577498904,2019-12-28 03:08,79.22,1007.80,1025.87,150,0.65,-2.54,-85,1
1577498964,2019-12-28 03:09,79.39,1007.78,1025.85,150,0.66,-2.50,-85,1
1577499025,2019-12-28 03:10,79.33,1007.84,1025.91,150,0.64,-2.53,-86,1
1577499087,2019-12-28 03:11,79.15,1007.80,1025.87,150,0.66,-2.54,-87,1
1577499147,2019-12-28 03:12,79.01,1007.84,1025.91,150,0.66,-2.56,-84,1
1577499207,2019-12-28 03:13,79.23,1007.84,1025.91,150,0.66,-2.52,-85,1
1577499267,2019-12-28 03:14,79.47,1007.86,1025.93,150,0.66,-2.48,-87,1
1577499328,2019-12-28 03:15,79.34,1007.89,1025.96,150,0.64,-2.52,-86,1
1577499388,2019-12-28 03:16,78.97,1007.91,1025.99,150,0.64,-2.59,-87,1
1577499448,2019-12-28 03:17,79.40,1007.89,1025.96,150,0.65,-2.51,-85,1
1577499508,2019-12-28 03:18,79.00,1007.96,1026.03,150,0.67,-2.55,-85,1
1577499568,2019-12-28 03:19,79.38,1007.95,1026.02,150,0.66,-2.50,-84,1
1577499628,2019-12-28 03:20,79.59,1007.96,1026.03,150,0.65,-2.47,-84,1
1577499688,2019-12-28 03:21,79.24,1007.99,1026.06,150,0.64,-2.54,-83,1
1577499748,2019-12-28 03:22,79.40,1008.01,1026.08,150,0.65,-2.51,-86,1
1577499808,2019-12-28 03:23,79.40,1007.98,1026.05,150,0.65,-2.51,-84,1
1577499868,2019-12-28 03:24,79.85,1007.97,1026.04,150,0.63,-2.45,-83,1
1577499928,2019-12-28 03:25,79.44,1008.00,1026.07,150,0.64,-2.51,-81,1
1577499988,2019-12-28 03:26,79.32,1008.07,1026.14,150,0.64,-2.53,-83,1
1577500048,2019-12-28 03:27,79.16,1008.08,1026.15,150,0.61,-2.59,-86,1
1577500108,2019-12-28 03:28,78.96,1008.19,1026.26,150,0.61,-2.62,-84,1
1577500168,2019-12-28 03:29,79.03,1008.05,1026.13,150,0.60,-2.62,-86,1
1577500228,2019-12-28 03:30,79.23,1008.11,1026.18,150,0.60,-2.58,-86,1
1577500288,2019-12-28 03:31,79.31,1008.16,1026.23,150,0.60,-2.57,-87,1
1577500348,2019-12-28 03:32,78.96,1008.16,1026.23,150,0.58,-2.65,-85,1
1577500408,2019-12-28 03:33,78.61,1008.10,1026.17,150,0.58,-2.71,-85,1
1577500468,2019-12-28 03:34,78.82,1008.11,1026.18,150,0.59,-2.66,-85,1
1577500528,2019-12-28 03:35,78.87,1008.12,1026.19,150,0.62,-2.62,-86,1
1577500588,2019-12-28 03:36,79.12,1008.16,1026.23,150,0.61,-2.59,-85,1
1577500648,2019-12-28 03:37,79.31,1008.14,1026.21,150,0.61,-2.56,-84,1
1577500708,2019-12-28 03:38,79.04,1008.15,1026.22,150,0.58,-2.63,-87,1
1577500769,2019-12-28 03:39,78.86,1008.15,1026.23,150,0.58,-2.66,-82,1
1577500829,2019-12-28 03:40,78.47,1008.13,1026.20,150,0.58,-2.73,-87,1
1577500889,2019-12-28 03:41,78.55,1008.12,1026.19,150,0.57,-2.73,-87,1
1577500949,2019-12-28 03:42,79.02,1008.15,1026.22,150,0.55,-2.67,-86,1
1577501009,2019-12-28 03:43,79.03,1008.20,1026.28,150,0.38,-2.83,-86,1
1577501069,2019-12-28 03:44,78.34,1008.16,1026.23,150,0.51,-2.82,-84,1
1577501129,2019-12-28 03:45,78.79,1008.15,1026.22,150,0.55,-2.71,-85,1
1577501189,2019-12-28 03:46,78.57,1008.16,1026.24,150,0.54,-2.75,-86,1
1577501249,2019-12-28 03:47,78.39,1008.11,1026.18,150,0.56,-2.77,-85,1
1577501309,2019-12-28 03:48,78.22,1008.21,1026.28,150,0.55,-2.80,-85,1
1577501369,2019-12-28 03:49,78.62,1008.11,1026.18,150,0.48,-2.80,-84,1
1577501429,2019-12-28 03:50,78.29,1008.21,1026.28,150,0.51,-2.83,-86,1
1577501489,2019-12-28 03:51,77.79,1008.21,1026.28,150,0.52,-2.91,-88,1
1577501549,2019-12-28 03:52,77.78,1008.23,1026.30,150,0.51,-2.92,-86,1
1577501609,2019-12-28 03:53,77.30,1008.17,1026.24,150,0.52,-2.99,-85,1
1577501669,2019-12-28 03:54,77.28,1008.26,1026.34,150,0.51,-3.01,-85,1
1577501729,2019-12-28 03:55,77.66,1008.24,1026.31,150,0.46,-2.99,-85,1
1577501789,2019-12-28 03:56,77.49,1008.18,1026.25,150,0.50,-2.98,-83,1
1577501849,2019-12-28 03:57,76.98,1008.21,1026.28,150,0.47,-3.10,-85,1
1577501909,2019-12-28 03:58,77.18,1008.22,1026.29,150,0.51,-3.02,-85,1
1577501969,2019-12-28 03:59,77.61,1008.30,1026.37,150,0.35,-3.10,-87,1
1577502029,2019-12-28 04:00,77.64,1008.21,1026.29,150,0.49,-2.96,-85,1
1577502089,2019-12-28 04:01,77.72,1008.25,1026.32,150,0.50,-2.94,-84,1
1577502150,2019-12-28 04:02,77.43,1008.23,1026.30,150,0.49,-3.00,-84,1
1577502210,2019-12-28 04:03,77.92,1008.25,1026.32,150,0.49,-2.91,-85,1
1577502270,2019-12-28 04:04,77.51,1007.91,1025.98,150,0.47,-3.01,-86,1
1577502330,2019-12-28 04:05,78.05,1008.29,1026.36,150,0.41,-2.97,-84,1
1577502390,2019-12-28 04:06,77.41,1008.30,1026.38,150,0.46,-3.03,-85,1
1577502450,2019-12-28 04:07,77.34,1008.36,1026.43,150,0.47,-3.03,-85,1
1577502510,2019-12-28 04:08,77.28,1008.32,1026.39,150,0.48,-3.03,-85,1
1577502570,2019-12-28 04:09,76.80,1008.35,1026.42,150,0.46,-3.14,-88,1
1577502630,2019-12-28 04:10,77.26,1008.33,1026.41,150,0.47,-3.05,-87,1
1577502690,2019-12-28 04:11,77.38,1008.39,1026.47,150,0.48,-3.02,-87,1
1577502750,2019-12-28 04:12,77.29,1008.46,1026.53,150,0.44,-3.07,-85,1
1577502810,2019-12-28 04:13,76.67,1008.38,1026.45,150,0.47,-3.15,-86,1
1577502870,2019-12-28 04:14,77.25,1008.40,1026.47,150,0.46,-3.06,-87,1
1577502930,2019-12-28 04:15,77.80,1008.29,1026.36,150,0.46,-2.96,-86,1
1577502990,2019-12-28 04:16,77.01,1008.33,1026.41,150,0.46,-3.10,-82,1
1577503050,2019-12-28 04:17,76.48,1008.41,1026.48,150,0.46,-3.19,-84,1
1577503110,2019-12-28 04:18,76.29,1008.39,1026.46,150,0.45,-3.24,-87,1
1577503170,2019-12-28 04:19,76.29,1008.36,1026.44,150,0.45,-3.24,-85,1
1577503230,2019-12-28 04:20,76.65,1008.34,1026.41,150,0.43,-3.19,-85,1
1577503290,2019-12-28 04:21,76.60,1008.42,1026.49,150,0.42,-3.21,-84,1
1577503350,2019-12-28 04:22,76.47,1008.37,1026.44,150,0.44,-3.21,-84,1
1577503410,2019-12-28 04:23,76.65,1008.45,1026.52,150,0.46,-3.16,-84,1
1577503470,2019-12-28 04:24,75.78,1008.42,1026.50,150,0.44,-3.34,-86,1
1577503530,2019-12-28 04:25,76.18,1008.42,1026.49,150,0.45,-3.26,-85,1
1577503590,2019-12-28 04:26,76.07,1008.35,1026.43,150,0.44,-3.29,-86,1
1577503651,2019-12-28 04:27,75.95,1008.51,1026.58,150,0.42,-3.33,-84,1
1577503711,2019-12-28 04:28,75.69,1008.44,1026.51,150,0.41,-3.38,-85,1
1577503771,2019-12-28 04:29,75.26,1008.47,1026.55,150,0.43,-3.44,-85,1
1577503831,2019-12-28 04:30,76.01,1008.48,1026.55,150,0.43,-3.31,-84,1
1577503891,2019-12-28 04:31,75.82,1008.48,1026.56,150,0.42,-3.35,-84,1
1577503951,2019-12-28 04:32,75.74,1008.49,1026.56,150,0.42,-3.36,-84,1
1577504011,2019-12-28 04:33,75.62,1008.44,1026.51,150,0.42,-3.38,-85,1
1577504074,2019-12-28 04:34,75.13,1008.49,1026.56,150,0.41,-3.48,-84,1
1577504134,2019-12-28 04:35,75.75,1008.46,1026.54,150,0.42,-3.36,-83,1
1577504194,2019-12-28 04:36,75.62,1008.49,1026.56,150,0.41,-3.39,-82,1
1577504254,2019-12-28 04:37,75.39,1008.58,1026.66,150,0.40,-3.44,-87,1
1577504314,2019-12-28 04:38,75.47,1008.54,1026.61,150,0.39,-3.44,-87,1
1577504374,2019-12-28 04:39,75.03,1008.53,1026.60,150,0.38,-3.53,-86,1
1577504434,2019-12-28 04:40,75.39,1008.56,1026.63,150,0.38,-3.46,-87,1
1577504494,2019-12-28 04:41,74.99,1008.62,1026.69,150,0.37,-3.55,-85,1
1577504554,2019-12-28 04:42,75.39,1008.55,1026.62,150,0.36,-3.48,-85,1
1577504614,2019-12-28 04:43,74.95,1008.57,1026.64,150,0.36,-3.56,-84,1
1577504674,2019-12-28 04:44,75.19,1008.56,1026.63,150,0.31,-3.57,-84,1
1577504734,2019-12-28 04:45,74.99,1008.54,1026.62,150,0.33,-3.58,-88,1
1577504794,2019-12-28 04:46,75.09,1008.58,1026.66,150,0.35,-3.55,-85,1
1577504854,2019-12-28 04:47,75.19,1008.54,1026.62,150,0.34,-3.54,-83,1
1577504914,2019-12-28 04:48,75.73,1008.61,1026.68,150,0.31,-3.47,-83,1
1577504974,2019-12-28 04:49,75.17,1008.63,1026.71,150,0.30,-3.58,-82,1
1577505034,2019-12-28 04:50,74.60,1008.60,1026.67,150,0.30,-3.68,-82,1
1577505094,2019-12-28 04:51,74.88,1008.60,1026.67,150,0.30,-3.63,-84,1
1577505154,2019-12-28 04:52,74.75,1008.63,1026.70,150,0.30,-3.66,-85,1
1577505214,2019-12-28 04:53,74.92,1008.60,1026.67,150,0.28,-3.64,-84,1
1577505274,2019-12-28 04:54,74.83,1008.57,1026.64,150,0.27,-3.67,-83,1
1577505334,2019-12-28 04:55,74.48,1008.63,1026.70,150,0.24,-3.76,-84,1
1577505394,2019-12-28 04:56,75.30,1008.65,1026.72,150,0.24,-3.62,-86,1
1577505454,2019-12-28 04:57,74.64,1008.66,1026.73,150,0.23,-3.74,-82,1
1577505515,2019-12-28 04:58,74.87,1008.72,1026.79,150,0.22,-3.71,-87,1
1577505575,2019-12-28 04:59,74.63,1008.73,1026.80,150,0.20,-3.77,-86,1
1577505635,2019-12-28 05:00,74.77,1008.75,1026.82,150,0.22,-3.73,-84,1
1577505695,2019-12-28 05:01,74.80,1008.73,1026.80,150,0.22,-3.72,-85,1
1577505755,2019-12-28 05:02,74.82,1008.73,1026.81,150,0.21,-3.73,-85,1
1577505815,2019-12-28 05:03,74.91,1008.76,1026.84,150,0.18,-3.74,-84,1
1577505875,2019-12-28 05:04,74.90,1008.77,1026.84,150,0.19,-3.74,-84,1
1577505935,2019-12-28 05:05,74.96,1008.80,1026.87,150,0.18,-3.73,-86,1
1577505995,2019-12-28 05:06,75.18,1008.78,1026.85,150,0.15,-3.72,-84,1
1577506055,2019-12-28 05:07,74.65,1008.82,1026.89,150,0.12,-3.85,-87,1
1577506115,2019-12-28 05:08,74.07,1008.85,1026.93,150,0.14,-3.93,-85,1
1577506175,2019-12-28 05:09,74.85,1008.76,1026.83,150,0.13,-3.80,-86,1
1577506235,2019-12-28 05:10,74.44,1008.89,1026.96,150,0.12,-3.89,-84,1
1577506295,2019-12-28 05:11,74.42,1008.87,1026.94,150,0.11,-3.90,-86,1
1577506355,2019-12-28 05:12,75.07,1008.86,1026.93,150,0.11,-3.78,-83,1
1577506415,2019-12-28 05:13,74.57,1008.88,1026.95,150,0.11,-3.87,-86,1
1577506475,2019-12-28 05:14,74.63,1008.92,1027.00,150,0.12,-3.85,-83,1
1577506535,2019-12-28 05:15,74.87,1008.99,1027.06,150,0.09,-3.84,-86,1
1577506595,2019-12-28 05:16,74.85,1008.99,1027.07,150,0.09,-3.84,-85,1
1577506655,2019-12-28 05:17,75.34,1008.97,1027.04,150,0.09,-3.75,-85,1
1577506715,2019-12-28 05:18,74.31,1008.97,1027.04,150,0.07,-3.96,-82,1
1577506775,2019-12-28 05:19,74.71,1009.02,1027.09,150,0.08,-3.88,-84,1
1577506835,2019-12-28 05:20,74.83,1009.09,1027.16,150,0.07,-3.87,-86,1
1577506898,2019-12-28 05:21,75.04,1009.09,1027.16,150,0.06,-3.84,-87,1
1577506958,2019-12-28 05:22,74.48,1009.02,1027.09,150,0.06,-3.94,-83,1
1577507018,2019-12-28 05:23,74.46,1009.13,1027.20,150,0.04,-3.96,-85,1
1577507078,2019-12-28 05:24,73.60,1009.06,1027.13,150,0.03,-4.12,-87,1
1577507138,2019-12-28 05:25,73.67,1009.02,1027.09,150,0.05,-4.09,-86,1
1577507198,2019-12-28 05:26,73.95,1009.00,1027.08,150,0.04,-4.05,-86,1
1577507258,2019-12-28 05:27,74.11,1009.04,1027.11,150,0.02,-4.04,-85,1
1577507318,2019-12-28 05:28,74.38,1009.00,1027.08,150,0.00,-4.01,-84,1
1577507378,2019-12-28 05:29,74.47,1009.13,1027.20,150,-0.02,-4.02,-86,1
1577507438,2019-12-28 05:30,74.76,1009.03,1027.10,150,-0.01,-3.95,-86,1
1577507498,2019-12-28 05:31,74.60,1009.07,1027.15,150,-0.01,-3.98,-84,1
1577507558,2019-12-28 05:32,74.26,1009.09,1027.16,150,-0.02,-4.05,-87,1
1577507618,2019-12-28 05:33,74.39,1009.13,1027.20,150,0.00,-4.01,-86,1
1577507678,2019-12-28 05:34,73.99,1009.12,1027.19,150,-0.02,-4.10,-86,1
1577507739,2019-12-28 05:35,74.34,1009.14,1027.22,150,-0.04,-4.06,-83,1
1577507799,2019-12-28 05:36,74.17,1009.18,1027.25,150,-0.05,-4.10,-85,1
1577507859,2019-12-28 05:37,73.75,1009.21,1027.29,150,-0.06,-4.18,-87,1
1577507919,2019-12-28 05:38,74.07,1009.23,1027.30,150,-0.01,-4.08,-88,1
1577507979,2019-12-28 05:39,73.95,1009.18,1027.25,150,-0.05,-4.14,-84,1
1577508039,2019-12-28 05:40,73.71,1009.30,1027.38,150,-0.01,-4.14,-85,1
1577508099,2019-12-28 05:41,74.46,1009.22,1027.29,150,-0.04,-4.04,-85,1
1577508159,2019-12-28 05:42,74.20,1009.25,1027.32,150,-0.03,-4.07,-84,1
1577508219,2019-12-28 05:43,74.04,1009.28,1027.35,150,-0.06,-4.13,-83,1
1577508279,2019-12-28 05:44,74.55,1009.27,1027.34,150,-0.04,-4.02,-85,1